FENGYUN 4A

Last updated on Wed Jul 02 2025 00:02:22 GMT+0000 (Coordinated Universal Time)

1 41882U 16077A 25182.59178340 -.00000354 00000+0 00000+0 0 9990 2 41882 1.4287 84.1429 0006911 166.3300 6.1611 1.00268516 31414
UTC large
Height (km)
Speed (km/s)
/
Latitude / Longitude
Inclination (degrees)
Orbital Period (minutes)
Azimuth
Elevation
Range (km)
Doppler Factor

Next 0 passes for location: London (51.5072 / 0.1276)

Sorry there are no passes over London.